TimeEDT,TemperatureF,Dew PointF,Humidity,Sea Level PressureIn,VisibilityMPH,Wind Direction,Wind SpeedMPH,Gust SpeedMPH,PrecipitationIn,Events,Conditions,WindDirDegrees,DateUTC
12:15 AM,73.2,69.8,89,29.85,10.0,SSW,3.5,-,N/A,,Clear,210,2013-07-25 04:15:00
12:35 AM,73.4,69.3,87,29.85,10.0,WSW,3.5,-,N/A,,Clear,240,2013-07-25 04:35:00
12:55 AM,72.9,69.1,88,29.84,10.0,West,4.6,-,N/A,,Clear,260,2013-07-25 04:55:00
1:15 AM,72.7,69.1,88,29.84,10.0,NNW,4.6,-,N/A,,Clear,330,2013-07-25 05:15:00
1:35 AM,72.5,69.3,90,29.84,10.0,NW,6.9,-,N/A,,Clear,320,2013-07-25 05:35:00
1:55 AM,72.3,69.1,89,29.84,10.0,NNW,4.6,-,N/A,,Clear,330,2013-07-25 05:55:00
2:15 AM,72.5,68.9,88,29.84,10.0,NNW,4.6,-,N/A,,Mostly Cloudy,330,2013-07-25 06:15:00
2:35 AM,72.9,68.5,86,29.84,10.0,NNW,5.8,-,N/A,,Overcast,330,2013-07-25 06:35:00
2:55 AM,73.0,68.5,86,29.84,10.0,North,6.9,-,N/A,,Overcast,350,2013-07-25 06:55:00
3:15 AM,73.0,68.5,86,29.83,10.0,NNW,6.9,-,N/A,,Mostly Cloudy,330,2013-07-25 07:15:00
3:35 AM,72.5,68.4,87,29.82,10.0,NNW,6.9,-,N/A,,Scattered Clouds,330,2013-07-25 07:35:00
3:55 AM,72.0,68.4,88,29.81,10.0,NNE,5.8,-,N/A,,Scattered Clouds,30,2013-07-25 07:55:00
4:15 AM,72.0,68.2,88,29.81,10.0,NNE,4.6,-,N/A,,Scattered Clouds,20,2013-07-25 08:15:00
4:35 AM,72.0,68.2,88,29.82,10.0,NNW,3.5,-,N/A,,Scattered Clouds,330,2013-07-25 08:35:00
4:55 AM,71.8,68.4,89,29.83,10.0,North,3.5,-,N/A,,Scattered Clouds,360,2013-07-25 08:55:00
5:15 AM,71.8,68.2,88,29.83,10.0,North,4.6,-,N/A,,Mostly Cloudy,350,2013-07-25 09:15:00
5:35 AM,71.8,68.2,88,29.84,10.0,NNE,5.8,-,N/A,,Overcast,20,2013-07-25 09:35:00
5:55 AM,71.8,68.2,88,29.84,10.0,North,6.9,-,N/A,,Mostly Cloudy,10,2013-07-25 09:55:00
6:15 AM,71.8,68.2,88,29.85,10.0,North,4.6,-,N/A,,Overcast,10,2013-07-25 10:15:00
6:35 AM,71.6,68.0,88,29.85,10.0,North,4.6,-,N/A,,Scattered Clouds,350,2013-07-25 10:35:00
6:55 AM,71.6,68.0,88,29.86,10.0,North,4.6,-,N/A,,Mostly Cloudy,360,2013-07-25 10:55:00
7:15 AM,71.8,68.2,88,29.86,10.0,NNE,5.8,-,N/A,,Overcast,20,2013-07-25 11:15:00
7:35 AM,72.0,68.2,88,29.87,10.0,NNE,4.6,-,N/A,,Overcast,30,2013-07-25 11:35:00
7:55 AM,72.3,68.5,88,29.87,10.0,NE,6.9,-,N/A,,Overcast,40,2013-07-25 11:55:00
8:15 AM,72.9,68.9,87,29.87,10.0,NE,8.1,-,N/A,Rain,Light Rain,40,2013-07-25 12:15:00
8:35 AM,73.2,69.1,87,29.87,10.0,NE,9.2,-,N/A,,Light Drizzle,50,2013-07-25 12:35:00
8:55 AM,73.4,69.1,86,29.88,10.0,ENE,9.2,-,N/A,,Overcast,70,2013-07-25 12:55:00
9:15 AM,74.3,69.3,84,29.89,10.0,NE,6.9,-,N/A,,Overcast,40,2013-07-25 13:15:00
9:35 AM,75.0,69.3,82,29.88,10.0,NE,9.2,-,N/A,,Overcast,40,2013-07-25 13:35:00
9:55 AM,75.4,69.1,81,29.89,10.0,NE,6.9,-,N/A,,Overcast,50,2013-07-25 13:55:00
10:15 AM,75.2,68.9,81,29.90,10.0,NNE,4.6,-,N/A,,Overcast,30,2013-07-25 14:15:00
10:35 AM,76.8,69.4,78,29.90,10.0,NE,4.6,-,N/A,,Overcast,40,2013-07-25 14:35:00
10:55 AM,77.5,69.4,76,29.90,10.0,North,8.1,-,N/A,,Overcast,10,2013-07-25 14:55:00
11:15 AM,78.3,69.6,75,29.91,10.0,NNE,10.4,-,N/A,,Overcast,30,2013-07-25 15:15:00
11:35 AM,78.4,69.6,74,29.91,10.0,NNE,8.1,16.1,N/A,,Overcast,20,2013-07-25 15:35:00
11:55 AM,80.4,70.3,71,29.92,10.0,North,6.9,-,N/A,,Overcast,360,2013-07-25 15:55:00
12:15 PM,79.9,70.2,72,29.92,10.0,NNW,9.2,-,N/A,,Overcast,330,2013-07-25 16:15:00
12:35 PM,78.6,69.6,74,29.92,10.0,North,5.8,-,N/A,,Overcast,350,2013-07-25 16:35:00
12:55 PM,79.7,69.6,71,29.92,10.0,NNW,10.4,-,N/A,,Overcast,340,2013-07-25 16:55:00
1:15 PM,79.9,69.4,70,29.92,10.0,NNW,11.5,17.3,N/A,,Overcast,330,2013-07-25 17:15:00
1:35 PM,78.8,68.9,72,29.93,10.0,NNW,12.7,17.3,N/A,,Overcast,330,2013-07-25 17:35:00
1:55 PM,79.5,69.1,70,29.92,10.0,North,9.2,-,N/A,,Mostly Cloudy,350,2013-07-25 17:55:00
2:15 PM,80.8,69.1,67,29.92,10.0,North,9.2,-,N/A,,Mostly Cloudy,360,2013-07-25 18:15:00
2:35 PM,80.4,68.5,67,29.92,10.0,North,9.2,-,N/A,,Overcast,360,2013-07-25 18:35:00
2:55 PM,81.0,69.3,67,29.92,10.0,NNE,9.2,-,N/A,,Mostly Cloudy,20,2013-07-25 18:55:00
3:15 PM,82.0,69.3,65,29.92,10.0,North,9.2,16.1,N/A,,Mostly Cloudy,350,2013-07-25 19:15:00
3:35 PM,81.7,68.7,65,29.92,10.0,North,5.8,17.3,N/A,,Mostly Cloudy,10,2013-07-25 19:35:00
3:55 PM,82.6,69.4,64,29.92,10.0,North,10.4,-,N/A,,Scattered Clouds,360,2013-07-25 19:55:00
4:15 PM,82.9,68.5,62,29.92,10.0,North,8.1,-,N/A,,Mostly Cloudy,10,2013-07-25 20:15:00
4:35 PM,82.8,68.5,62,29.92,10.0,North,4.6,-,N/A,,Mostly Cloudy,360,2013-07-25 20:35:00
4:55 PM,82.2,68.9,64,29.92,10.0,North,5.8,-,N/A,,Scattered Clouds,360,2013-07-25 20:55:00
5:15 PM,81.9,68.4,63,29.92,10.0,North,5.8,-,N/A,,Scattered Clouds,360,2013-07-25 21:15:00
5:35 PM,83.3,67.8,59,29.93,10.0,North,10.4,-,N/A,,Mostly Cloudy,350,2013-07-25 21:35:00
5:55 PM,82.9,67.3,59,29.93,10.0,NNW,10.4,-,N/A,,Overcast,340,2013-07-25 21:55:00
6:15 PM,81.7,66.7,60,29.94,10.0,North,8.1,-,N/A,,Scattered Clouds,10,2013-07-25 22:15:00
6:35 PM,80.6,66.4,62,29.94,10.0,North,6.9,-,N/A,,Clear,10,2013-07-25 22:35:00
6:55 PM,79.9,66.2,63,29.95,10.0,NNE,6.9,-,N/A,,Clear,20,2013-07-25 22:55:00
7:15 PM,79.2,66.4,65,29.95,10.0,North,8.1,-,N/A,,Clear,10,2013-07-25 23:15:00
7:35 PM,78.3,66.0,66,29.95,10.0,North,6.9,-,N/A,,Clear,10,2013-07-25 23:35:00
7:55 PM,77.2,66.4,69,29.96,10.0,North,4.6,-,N/A,,Clear,10,2013-07-25 23:55:00
8:15 PM,75.9,66.4,72,29.97,10.0,NNE,5.8,-,N/A,,Clear,20,2013-07-26 00:15:00
8:35 PM,74.8,66.4,75,29.97,10.0,NNE,4.6,-,N/A,,Clear,20,2013-07-26 00:35:00
8:55 PM,73.9,66.4,77,29.98,10.0,NNE,4.6,-,N/A,,Clear,20,2013-07-26 00:55:00
9:15 PM,73.6,66.2,78,29.98,10.0,North,3.5,-,N/A,,Clear,10,2013-07-26 01:15:00
9:35 PM,73.0,66.4,80,29.99,10.0,North,3.5,-,N/A,,Clear,10,2013-07-26 01:35:00
9:55 PM,72.3,66.4,82,30.00,10.0,North,3.5,-,N/A,,Clear,10,2013-07-26 01:55:00
10:15 PM,72.0,66.4,83,30.01,10.0,NNE,4.6,-,N/A,,Clear,20,2013-07-26 02:15:00
10:35 PM,71.6,66.2,83,30.01,10.0,NNE,3.5,-,N/A,,Clear,20,2013-07-26 02:35:00
10:55 PM,71.6,66.2,83,30.02,10.0,Calm,Calm,-,N/A,,Clear,0,2013-07-26 02:55:00
11:15 PM,71.1,66.2,85,30.02,10.0,Calm,Calm,-,N/A,,Clear,0,2013-07-26 03:15:00
11:35 PM,70.0,66.0,87,30.02,10.0,Calm,Calm,-,N/A,,Scattered Clouds,0,2013-07-26 03:35:00
11:55 PM,69.1,66.2,91,30.02,10.0,Calm,Calm,-,N/A,,Mostly Cloudy,0,2013-07-26 03:55:00